This is the latest recevied weather packets stored in our database for station/object KB1YTR-1. If no packets are shown the sender has not sent any weather packets the latest 10 day(s).
| Time | Temp. | Humidity | Pressure | Rain* | Wind** | Luminosity | Snow |
|---|---|---|---|---|---|---|---|
| 1788049384 | 16.11° C | 99% | 1012.3 hPa | 0 mm | - | - | - |
| 1788048620 | 16.11° C | 99% | 1012.5 hPa | 0 mm | - | - | - |
| 1788047825 | 16.11° C | 99% | 1012.8 hPa | 0 mm | - | - | - |
| 1788046966 | 16.67° C | 99% | 1012.4 hPa | 0 mm | - | - | - |
| 1788046166 | 16.67° C | 99% | 1012.8 hPa | 0 mm | - | - | - |
| 1788045390 | 17.22° C | 99% | 1012.5 hPa | 0 mm | - | - | - |
| 1788044545 | 17.22° C | 99% | 1012.4 hPa | 0 mm | - | - | - |
| 1788043715 | 17.78° C | 99% | 1012.6 hPa | 0 mm | - | - | - |
| 1788042825 | 17.22° C | 99% | 1012.6 hPa | 0 mm | - | - | - |
| 1788042075 | 17.22° C | 99% | 1012.5 hPa | 0 mm | - | - | - |
| 1788041330 | 17.22° C | 99% | 1012.4 hPa | 0 mm | - | - | - |
| 1788040485 | 16.67° C | 99% | 1012.4 hPa | 0 mm | - | - | - |
| 1788039582 | 17.78° C | 98% | 1012.4 hPa | 0 mm | - | - | - |
| 1788038775 | 17.78° C | 98% | 1012.5 hPa | 0 mm | - | - | - |
| 1788037891 | 18.89° C | 96% | 1012.3 hPa | 0 mm | - | - | - |
| 1788037100 | 18.33° C | 97% | 1012.3 hPa | 0 mm | - | - | - |
| 1788036346 | 18.33° C | 96% | 1012.2 hPa | 0 mm | - | - | - |
| 1788035581 | 18.89° C | 95% | 1012.6 hPa | 0 mm | - | - | - |
| 1788034815 | 18.89° C | 96% | 1012.5 hPa | 0 mm | - | - | - |
| 1788034075 | 18.33° C | 97% | 1012.8 hPa | 0 mm | - | - | - |
| 1788033245 | 18.89° C | 96% | 1012.8 hPa | 0 mm | - | - | - |
| 1788032390 | 17.78° C | 96% | 1012.9 hPa | 0 mm | - | - | - |
| 1788031551 | 17.22° C | 98% | 1012.9 hPa | 0 mm | - | - | - |
| 1788030720 | 17.78° C | 97% | 1013.1 hPa | 0 mm | - | - | - |
| 1788029965 | 17.22° C | 98% | 1013.1 hPa | 0 mm | - | - | - |
* Rain latest hour (hover to see other rain measurements)
** Current wind speed in m/s (hover to see current wind gust speed)